Location: *
(43.9905°S, 176.4941°W)
Time: 08:54:11
(UTC+00:00)

ARGOS - Pass Details

Date: 08 December 2019
Orbit: 820 x 835 km, 98.5° (Epoch: 20 January)

Event Time Altitude Azimuth Distance (km) Brightness Sun altitude
Rises 08:30:21 0° 165° (SSE) 3,423 6.8 -10.7°
Reaches altitude 10° 08:32:45 10° 163° (SSE) 2,482 6.1 -11.0°
Maximum altitude 08:38:16 74° 77° (ENE) 882 3.2 -11.7°
Drops below altitude 10° 08:43:42 10° 352° (N) 2,448 5.2 -12.3°
Enters shadow 08:45:22 - 350° (N) 3,102 5.8 -12.5°
